Vorticity
nan nan nan nan nan nan nan nan nan nan nan nan nan nan nan nan nan nan nan nan nan nan nan nan nan nan nan nan nan nan nan nan
nan 6 7 7 7 7 6 6 5 3 5 5 6 6 7 7 7 7 8 8 9 10 9 8 8 8 8 9 10 8 8 nan
nan 6 5 6 7 7 7 7 5 3 6 7 9 8 6 7 7 6 7 8 9 9 9 8 10 9 7 8 11 11 7 nan
nan 6 5 6 7 7 7 8 5 5 5 7 7 7 8 8 7 5 6 8 8 8 9 9 9 9 8 7 8 11 9 nan
nan 7 7 6 6 7 8 8 6 7 5 6 5 4 7 7 9 8 8 7 8 8 8 8 9 9 9 9 9 9 11 nan
nan 10 8 8 7 7 8 9 8 8 7 6 6 8 8 8 9 7 6 6 6 8 8 9 9 9 8 8 9 11 11 nan
nan 11 10 8 7 8 9 8 9 8 9 9 9 9 6 8 7 6 6 6 6 7 8 7 8 9 8 8 8 9 10 nan
nan 13 9 9 6 5 8 9 9 9 10 9 10 9 7 8 6 7 8 7 7 7 7 8 9 8 8 8 8 7 9 nan
nan 13 11 9 8 7 8 8 7 9 10 9 9 6 7 8 9 8 8 9 9 9 8 8 8 9 8 8 8 8 9 nan
nan 14 13 11 10 8 8 8 8 8 8 8 8 8 9 9 9 7 8 9 9 8 8 8 8 8 9 9 8 9 9 nan
nan 16 13 11 10 10 9 8 8 8 7 7 9 9 9 9 8 8 9 8 9 9 8 7 8 8 9 10 9 9 10 nan
nan 15 14 12 11 9 8 9 9 7 7 8 8 9 8 8 8 9 8 9 9 8 8 8 8 8 9 9 10 9 9 nan
nan 15 12 12 10 9 8 9 8 8 8 9 9 9 8 7 8 9 8 9 9 9 8 8 8 9 10 9 8 9 9 nan
nan 15 12 10 10 10 9 8 8 9 9 9 8 8 8 8 8 8 9 9 8 10 8 8 8 9 9 9 9 8 8 nan
nan 13 11 12 11 10 9 10 10 9 9 9 9 8 8 8 9 8 10 9 8 8 9 10 10 9 8 9 8 8 7 nan
nan 14 12 12 11 10 9 9 10 9 10 9 9 9 9 8 9 9 10 9 9 9 9 8 9 8 11 11 9 9 9 nan
nan 14 14 14 13 9 9 10 11 9 9 10 10 9 9 9 8 10 8 10 9 8 8 9 8 10 10 11 14 10 9 nan
nan 19 19 17 15 15 12 10 11 11 9 10 10 10 8 9 8 9 10 10 9 9 9 9 10 10 9 10 11 12 10 nan
nan nan nan nan nan nan nan nan nan nan nan nan nan nan nan nan nan nan nan nan nan nan nan nan nan nan nan nan nan nan nan nan
CAPE
0 0 0 0 0 0 0 0 0 0 0 0 0 0 0 0 0 0 0 0 0 0 0 0 0 0 0 0 0 0 0 0
0 0 0 0 0 0 0 0 0 0 0 0 0 0 0 0 0 0 0 0 0 0 0 0 0 0 0 0 0 0 0 0
0 0 0 0 0 0 0 0 0 0 0 0 0 0 0 0 0 0 0 0 0 0 0 0 0 0 0 0 0 0 0 0
0 0 0 0 0 0 0 0 0 0 0 0 0 0 0 0 0 0 0 0 0 0 0 0 0 0 0 0 0 0 0 0
0 0 0 0 0 0 0 0 0 0 0 0 0 0 0 0 0 0 0 0 0 0 0 0 0 0 1 0 2 3 1 0
0 0 0 0 0 0 0 0 0 0 0 0 0 0 0 0 0 0 0 0 0 0 1 1 2 2 4 4 2 2 0 0
0 0 0 0 0 0 0 0 0 0 0 0 0 0 0 0 0 0 0 0 0 2 3 4 4 5 4 3 5 3 3 2
0 0 0 0 0 0 0 0 0 0 0 0 0 0 0 0 0 0 0 0 0 3 4 4 2 4 5 2 2 3 3 3
0 0 0 0 0 0 0 0 0 0 0 0 0 0 0 0 0 0 0 0 0 3 5 4 2 2 3 0 0 0 4 4
0 0 0 0 3 0 0 0 0 0 0 0 0 0 0 0 0 0 0 0 0 2 3 2 1 0 1 0 0 0 0 1
0 0 0 0 3 1 0 0 0 0 0 0 0 0 0 0 0 0 0 0 0 3 2 0 0 0 0 0 0 0 0 0
0 0 0 2 3 1 0 0 0 0 0 0 1 0 0 0 0 0 0 0 0 0 0 0 0 0 0 0 0 0 0 0
0 0 0 2 5 2 0 0 0 0 0 0 2 2 0 0 0 0 0 0 0 0 0 0 0 0 0 0 0 0 0 0
0 0 0 0 4 4 1 0 0 0 1 2 3 2 0 0 0 0 0 0 0 0 0 0 0 0 0 0 0 0 0 0
0 0 0 2 3 3 2 1 0 1 3 3 2 1 0 0 0 0 0 0 0 0 0 0 0 0 0 0 0 0 0 0
4 3 3 5 6 4 2 1 2 4 3 1 3 2 0 0 0 0 0 0 0 0 0 0 0 0 0 0 0 0 0 0
11 8 7 4 4 8 3 4 6 5 2 1 2 1 0 0 0 0 0 0 0 0 0 0 0 0 0 0 0 0 0 0
0 2 4 5 7 9 8 5 6 5 5 4 3 2 0 0 0 0 0 0 0 0 0 0 0 0 0 0 0 0 0 0
0 0 0 0 2 0 0 1 1 0 0 2 3 4 2 2 2 1 2 7 26 12 5 3 3 4 2 0 0 5 6 7